Theta_e
340 342 350 351 351 351 353 354 354 355 354 354 350 350 349 349 348 349 349 349 349 351 347 346 345 345 343 343 347 348 347 347 346 347 348 348 347 346 343 343 348 342 345
342 342 350 351 352 352 353 354 353 353 352 352 351 349 349 349 350 351 350 349 349 350 350 349 347 345 344 342 345 346 346 346 345 347 345 345 347 346 344 346 347 341 343
340 341 345 351 351 352 353 352 352 352 352 352 351 349 349 349 352 350 350 349 349 347 346 347 347 346 343 343 343 343 345 344 344 346 345 342 342 346 346 346 347 346 346
340 341 343 350 351 352 352 352 352 352 352 352 351 353 352 351 350 349 348 347 346 345 344 344 344 344 343 342 340 342 345 344 344 344 340 337 340 346 347 347 346 345 344
339 341 342 350 351 352 352 352 351 353 353 352 351 350 350 349 348 346 344 342 342 342 341 341 341 340 340 340 341 343 343 340 340 339 333 338 341 344 346 345 344 343 341
337 341 345 349 350 351 350 350 352 352 352 350 349 349 349 347 345 344 342 340 339 338 337 336 336 336 337 340 342 344 341 340 340 335 340 342 340 344 343 342 341 340 339
335 341 342 349 349 351 350 350 351 350 350 349 349 348 346 345 343 341 339 338 337 337 337 337 336 335 339 342 344 342 339 339 336 341 340 340 339 342 340 338 337 337 337
335 340 342 346 348 349 349 349 350 350 349 349 348 346 344 342 341 339 337 337 336 337 338 337 336 336 341 341 341 339 337 337 340 340 339 337 339 338 337 336 334 333 333
334 340 342 343 345 345 346 346 348 348 347 348 347 345 342 340 340 337 336 336 336 337 338 339 337 339 339 339 339 338 338 338 338 337 335 333 336 335 333 332 332 331 331
337 342 342 341 342 345 346 342 343 345 345 344 342 340 338 337 337 336 336 336 337 339 341 335 338 336 338 338 337 338 336 336 333 334 332 331 334 332 331 330 330 330 330
329 329 326 330 342 343 345 344 342 342 341 340 338 334 333 333 332 332 332 334 337 339 339 338 338 338 336 335 335 335 335 334 331 330 328 334 331 331 330 330 330 331 331
323 327 325 324 327 338 344 343 344 343 340 336 335 333 331 330 330 329 329 332 336 337 338 339 337 335 333 330 330 330 332 330 330 328 328 333 330 330 329 330 330 331 334
322 326 325 322 322 322 341 341 344 339 337 335 333 333 328 328 328 328 329 328 332 333 335 334 332 331 328 328 327 326 329 329 328 327 328 331 330 329 328 327 331 332 332
322 322 323 321 321 320 332 340 340 336 335 333 332 330 326 327 325 325 328 327 334 333 330 330 330 328 328 327 326 325 326 326 325 325 326 329 329 328 327 328 329 330 331
321 321 319 321 319 320 319 336 335 335 333 334 330 328 326 325 323 324 326 327 331 329 329 327 325 325 325 323 324 325 325 323 322 324 324 326 329 328 327 327 326 327 327
320 320 321 318 319 318 316 316 328 334 332 332 329 327 324 323 323 324 326 325 330 328 325 323 323 322 322 323 323 323 322 320 321 323 324 323 326 328 327 326 326 326 325
320 320 319 318 318 316 313 310 313 328 330 329 327 325 323 322 321 323 324 323 325 323 321 321 320 321 322 322 321 320 319 317 320 321 322 322 321 322 326 325 325 324 324
320 318 319 319 317 313 310 309 310 315 326 326 324 322 320 319 321 322 322 321 322 322 320 318 316 317 319 319 316 314 313 315 316 316 318 318 319 318 319 321 321 322 322
318 317 316 317 316 312 309 309 308 309 312 319 319 317 316 317 318 319 320 321 320 320 319 316 314 312 310 310 309 310 311 311 312 312 313 314 315 315 315 315 317 317 318
319 318 317 315 314 311 310 310 309 307 309 310 312 312 313 315 316 317 319 320 319 319 317 316 314 313 311 310 308 309 311 312 312 311 311 311 312 314 313 311 311 312 315
318 317 316 312 312 313 311 310 308 306 306 308 312 311 312 313 315 317 318 318 319 318 317 316 314 312 311 311 310 310 311 313 312 313 313 312 312 313 313 312 312 311 311
313 313 314 313 312 314 314 314 312 307 307 309 311 311 311 312 313 314 316 317 318 317 316 315 314 312 312 313 310 309 304 307 310 312 313 312 312 313 313 313 313 313 313
312 312 312 313 313 312 313 312 310 308 307 307 308 310 310 310 312 313 315 316 317 318 316 316 314 313 310 312 314 309 305 303 306 311 311 312 312 312 313 313 313 313 313
313 312 313 313 312 312 312 310 307 305 303 306 307 309 310 310 310 312 313 315 316 317 315 315 315 314 313 310 311 309 310 310 305 301 309 311 312 311 313 313 312 312 313
315 312 312 311 311 312 312 310 308 307 308 308 307 307 308 309 310 311 311 311 312 313 315 314 314 314 313 310 308 307 307 308 307 306 301 304 310 312 313 313 312 312 312
318 315 311 311 311 311 311 311 309 311 310 309 308 306 307 309 309 310 311 311 311 311 312 312 312 312 311 310 308 308 306 304 303 304 304 303 304 307 310 311 310 310 310
Wind_Speed
3 12 14 15 15 15 16 17 15 15 15 15 16 16 16 15 15 15 15 15 14 14 15 15 14 15 12 12 12 12 11 14 14 13 13 12 13 12 8 7 7 12 11
11 10 14 15 16 16 15 17 15 14 13 14 16 16 16 15 15 15 13 14 14 15 16 15 14 15 13 12 11 12 12 13 12 10 11 11 10 10 7 10 14 11 10
11 5 18 14 15 16 14 14 17 15 15 15 15 17 17 16 15 15 14 14 13 12 13 14 14 14 13 11 11 10 12 11 9 6 6 10 10 10 10 10 10 12 15
9 5 16 16 16 16 16 16 17 17 16 17 16 17 17 16 16 16 13 12 12 12 11 11 11 13 11 11 10 11 11 8 5 6 7 11 11 13 16 18 17 18 18
8 5 14 19 16 17 17 16 17 17 18 17 16 16 17 17 16 15 14 12 12 12 11 11 11 11 11 10 10 12 11 5 5 6 8 8 10 12 17 18 17 18 17
10 6 10 20 18 17 18 17 17 18 18 17 17 17 16 16 15 15 14 13 12 12 12 12 12 12 11 10 11 13 11 6 7 7 10 14 10 15 16 17 16 16 15
8 12 10 21 19 18 19 18 18 18 18 16 17 17 15 15 15 15 14 14 13 13 13 13 13 13 13 11 12 13 7 4 0 11 11 11 11 16 16 15 14 14 13
13 7 6 18 19 18 20 20 18 18 17 17 16 17 15 15 15 15 14 14 14 14 14 13 13 14 14 13 12 10 3 5 11 12 10 10 14 15 15 14 11 10 11
14 8 10 13 18 16 19 19 19 17 18 16 16 16 14 14 14 14 14 14 14 14 14 15 15 15 14 13 13 10 8 6 11 8 10 8 15 14 13 11 11 11 12
9 9 11 7 17 17 16 16 16 16 17 16 16 14 13 12 12 13 12 12 14 13 15 16 15 15 15 14 14 12 10 4 12 11 8 8 15 14 13 13 13 12 12
6 8 8 12 13 16 16 15 14 16 15 16 13 13 13 10 12 13 10 11 11 11 15 17 16 16 13 10 9 10 8 5 10 8 6 12 15 13 13 13 12 13 12
5 1 7 10 13 12 12 14 15 13 12 12 12 16 11 12 11 11 11 10 12 10 16 17 19 16 12 8 6 7 6 7 7 8 6 12 13 14 13 11 13 11 11
7 4 4 7 6 12 11 9 8 7 9 9 14 14 12 10 9 8 7 7 8 10 8 10 12 8 11 8 7 5 7 7 7 8 8 11 13 13 13 11 12 11 14
9 6 3 5 7 9 13 7 8 7 9 8 10 15 9 7 10 10 8 9 10 6 8 10 8 8 8 9 8 9 8 7 6 6 7 10 11 13 13 12 11 13 15
9 6 3 7 10 8 13 5 8 8 8 11 9 13 9 9 10 10 10 9 9 8 10 10 8 8 8 9 8 10 8 9 11 6 6 8 10 10 11 13 11 11 10
10 7 6 6 13 5 8 10 4 8 9 11 9 10 12 9 8 9 9 9 10 8 9 9 9 9 8 9 9 9 9 8 9 11 8 7 11 9 10 11 11 11 11
8 7 6 5 6 15 5 6 4 8 9 10 11 13 12 10 10 9 9 8 7 9 12 9 10 9 8 8 10 8 7 9 8 10 8 7 7 11 8 10 9 9 10
8 10 9 6 6 10 9 6 6 7 3 10 11 10 12 10 10 9 7 8 9 8 7 7 7 7 7 7 7 6 6 6 8 7 6 7 6 6 7 8 8 8 8
12 11 9 10 11 12 13 5 6 9 6 5 11 11 12 11 11 8 8 8 10 7 7 7 7 7 7 7 7 5 5 4 5 6 7 6 4 6 6 7 8 7 6
12 11 9 6 9 10 15 6 7 7 5 8 8 9 13 11 12 9 7 9 9 8 8 7 8 7 7 8 8 7 4 4 4 4 6 5 5 4 6 7 5 4 5
8 9 12 10 10 7 10 14 7 8 2 6 2 11 11 12 12 10 7 9 8 8 9 10 8 10 7 7 7 6 4 3 4 4 4 4 5 5 5 4 3 5 4
6 8 9 9 10 8 7 5 4 8 4 2 2 4 8 10 10 9 9 9 9 7 10 10 9 7 7 8 5 5 5 3 4 5 4 4 7 5 5 4 4 4 5
6 7 7 11 8 7 6 7 6 7 6 3 2 3 5 8 8 8 9 8 8 7 7 9 10 10 7 7 9 1 4 4 7 5 5 4 6 5 4 5 6 5 4
9 6 5 4 8 6 8 9 12 8 9 6 6 5 3 6 7 5 8 8 8 6 8 8 7 7 7 8 1 1 3 1 4 4 5 5 6 7 7 5 5 5 4
11 9 7 6 7 9 9 8 9 8 5 4 6 9 8 7 8 7 7 7 7 5 7 8 8 7 5 6 4 3 2 1 2 2 4 4 3 3 4 4 3 4 5
6 7 10 9 7 11 10 8 9 7 4 5 5 6 6 5 6 7 7 7 7 6 6 6 5 5 4 4 5 5 3 2 3 1 3 6 6 5 4 3 3 3 3
Wind_Direction
182 148 182 175 173 175 169 159 160 155 158 153 159 153 151 150 148 149 150 146 147 142 135 129 129 118 119 110 96 96 92 100 96 89 86 84 81 82 87 62 130 91 87
346 157 180 187 175 179 182 166 162 160 159 157 161 161 157 157 158 159 157 159 150 138 134 127 125 123 116 117 102 98 99 103 105 103 106 90 73 71 72 50 72 94 88
346 182 175 198 181 177 184 178 162 163 164 163 164 163 159 165 152 141 140 139 131 130 134 128 118 115 119 112 113 108 104 109 126 141 179 89 87 75 79 95 91 88 88
332 250 177 185 185 182 189 186 166 170 170 164 172 170 154 146 143 137 136 134 133 139 138 137 123 120 126 129 127 124 116 124 166 197 194 120 91 86 88 91 90 86 75
323 260 185 170 191 190 190 184 177 177 179 175 165 158 151 145 139 148 141 139 138 138 137 136 137 139 139 138 137 136 125 132 232 238 72 93 98 86 83 79 80 76 75
319 268 174 166 191 199 184 193 185 179 174 166 159 154 142 141 153 148 142 139 138 140 143 145 147 148 146 144 147 143 135 182 244 94 66 66 81 96 82 75 73 71 68
318 297 168 166 188 202 192 187 183 179 174 166 155 142 143 158 154 146 143 143 146 144 146 143 143 145 145 139 125 124 139 236 14 89 92 90 93 86 80 73 69 69 70
312 265 229 175 188 202 204 187 176 179 175 165 149 142 161 165 155 148 149 150 149 150 143 144 144 145 139 128 122 119 154 296 95 102 101 91 86 82 76 71 77 77 76
312 263 247 182 197 205 201 200 173 181 173 156 144 154 163 161 151 152 154 154 154 150 156 150 144 133 130 126 117 110 93 74 114 102 96 90 86 81 81 83 87 83 85
335 293 249 228 203 205 197 202 178 172 166 153 146 151 140 139 146 153 154 157 161 151 147 144 135 137 126 124 124 117 111 140 81 90 76 84 86 83 87 88 89 89 87
318 36 14 349 231 206 198 194 177 161 158 148 135 129 138 163 168 156 165 160 156 156 143 130 133 118 112 115 125 137 159 88 88 84 84 89 90 93 87 95 98 84 91
284 62 23 30 347 253 191 192 181 163 164 156 158 160 174 165 168 181 142 167 145 165 132 129 121 133 160 139 145 189 138 119 107 98 92 97 104 95 91 86 88 87 75
256 212 351 74 13 327 213 192 173 163 160 164 167 174 189 166 150 149 152 157 156 131 126 125 128 172 154 143 169 158 141 126 111 100 101 112 108 107 99 98 86 79 83
232 242 171 58 52 339 293 168 156 170 164 168 176 176 174 161 170 160 166 171 152 157 151 148 173 163 149 153 160 142 138 133 108 103 106 106 118 111 107 105 100 85 76
214 237 219 104 71 25 351 176 154 181 174 174 173 172 173 164 181 163 164 175 144 170 166 169 160 153 160 158 151 137 134 126 120 121 110 77 105 111 110 107 98 89 86
213 218 178 146 119 89 356 3 322 188 176 188 156 170 179 172 177 180 161 175 160 169 163 162 159 159 145 150 141 142 134 126 127 126 129 86 64 82 106 105 104 101 96
197 197 194 162 123 98 68 345 318 268 172 166 150 170 177 176 177 174 170 162 168 157 165 160 157 149 151 144 142 142 143 140 133 130 134 137 105 59 84 97 98 102 99
173 199 179 165 134 108 97 47 12 338 248 163 152 154 173 171 171 176 165 165 169 156 152 148 146 146 144 144 142 138 126 133 137 134 131 138 141 129 77 88 105 108 107
167 193 177 162 146 135 99 65 41 19 16 251 148 148 163 171 169 177 170 160 160 155 150 148 151 146 145 133 131 135 141 138 138 141 147 141 122 154 126 103 88 69 95
166 187 177 151 162 136 111 125 87 35 342 270 136 142 160 167 168 170 173 164 158 160 155 154 150 148 144 139 137 134 139 145 140 163 146 154 162 138 145 147 152 111 84
149 179 184 159 175 159 166 148 146 135 236 322 83 143 162 164 174 169 168 169 163 166 154 160 149 146 144 139 127 125 124 146 170 167 160 165 157 172 153 170 186 143 138
176 176 185 171 179 171 184 159 168 152 132 311 343 148 169 161 171 165 169 168 168 168 162 155 153 147 148 157 143 147 154 173 214 195 187 184 167 179 184 191 176 174 140
194 174 187 173 174 165 152 118 106 94 111 140 200 188 179 164 172 175 169 168 171 168 167 161 162 162 161 184 172 143 155 180 150 175 197 200 197 174 196 185 199 171 174
195 163 184 161 156 154 154 147 147 167 158 169 171 157 167 169 165 175 167 167 171 161 163 168 173 172 164 177 193 202 321 356 176 159 203 204 201 200 198 187 192 181 178
195 181 177 142 175 166 167 164 161 175 162 142 164 166 167 179 166 179 165 166 164 170 169 174 171 189 167 169 186 149 197 241 349 171 155 179 198 210 211 190 190 167 182
188 176 170 178 197 171 174 158 163 182 146 161 191 160 154 164 171 173 175 165 169 169 166 166 158 163 177 178 192 190 177 180 184 181 104 148 187 176 190 184 191 171 156